Rawlins, WY

1:12 AM MDT on July 25, 2016 (GMT -0600)
Rawlins Municipal

Weather History for KRWL - October, 2013

Change the Weather History Date:

Saturday, October 5, 2013

  Actual Average Record
Temperature  
Mean Temperature 30 °F 47 °F  
Max Temperature 36 °F 61 °F 78 °F (1993)
Min Temperature 23 °F 33 °F 14 °F (1969)
Degree Days  
Heating Degree Days 35 18  
Month to date heating degree days 119 84  
Since 1 July heating degree days 334 470  
Cooling Degree Days 0 0  
Month to date cooling degree days 0 0  
Year to date cooling degree days 371 186  
Moisture  
Dew Point 23 °F    
Average Humidity 79    
Maximum Humidity 88    
Minimum Humidity 70    
Precipitation  
Precipitation T in 0.03 in 0.65 in (1951)
Month to date precipitation 0.44 0.15  
Year to date precipitation 6.68 7.67  
Sea Level Pressure  
Sea Level Pressure 30.39 in    
Wind  
Wind Speed 15 mph (WSW)    
Max Wind Speed 26 mph    
Max Gust Speed 35 mph    
Visibility 10 miles    
Events Snow    
T = Trace of Precipitation, MM = Missing Value Source: NWS Daily Summary

Daily Weather History Graph

Daily Weather History Graph

Search for Another Location

Airport or City:

Trip Planner

Search our weather history database for the weather conditions in past years. The results will help you decide how hot, cold, wet, or windy it might be!

Date:

Astronomy

Oct. 05, 2013 Rise Set
Actual Time 7:10 AM MDT 6:43 PM MDT
Civil Twilight 6:42 AM MDT 7:10 PM MDT
Nautical Twilight 6:10 AM MDT 7:43 PM MDT
Astronomical Twilight 5:37 AM MDT 8:15 PM MDT
Moon 7:53 AM MDT (10/5) 7:02 PM MDT (10/5)
Length of Visible Light 12h 28m
Length of Day
11h 32m
New Moon, 1% of the Moon is Illuminated
Oct 5
New Moon
Oct 11
First Quarter
Oct 18
Full
Oct 26
Last Quarter
Nov 3
New

Hourly Weather History & Observations

Time (MDT) Temp. Windchill Dew Point Humidity Pressure Visibility Wind Dir Wind Speed Gust Speed Precip Events Conditions
12:53 AM 24.1 °F 12.5 °F 19.9 °F 84% 30.41 in 9.0 mi WNW 12.7 mph - 0.00 in Snow Light Snow
1:53 AM 24.1 °F 11.0 °F 19.9 °F 84% 30.42 in 10.0 mi WNW 16.1 mph - 0.00 in   Overcast
2:53 AM 23.0 °F 10.6 °F 19.9 °F 88% 30.41 in 10.0 mi West 13.8 mph - N/A   Overcast
3:53 AM 23.0 °F 9.6 °F 19.9 °F 88% 30.42 in 10.0 mi WSW 16.1 mph 24.2 mph N/A   Scattered Clouds
4:50 AM 23.0 °F 14.7 °F 19.4 °F 86% 30.31 in 10.0 mi SW 6.9 mph - N/A   Overcast
4:53 AM 23.0 °F 13.9 °F 19.9 °F 88% 30.43 in 10.0 mi SW 8.1 mph - N/A   Overcast
5:14 AM 23.0 °F 9.6 °F 19.4 °F 86% 30.30 in 10.0 mi SW 16.1 mph 21.9 mph N/A   Mostly Cloudy
5:53 AM 23.0 °F 10.1 °F 19.0 °F 85% 30.42 in 10.0 mi WSW 15.0 mph - N/A   Clear
6:44 AM 24.8 °F 13.4 °F 19.4 °F 80% 30.32 in 10.0 mi WSW 12.7 mph - N/A   Mostly Cloudy
6:53 AM 25.0 °F 11.3 °F 19.9 °F 81% 30.43 in 10.0 mi West 18.4 mph 24.2 mph N/A   Overcast
7:02 AM 24.8 °F 12.4 °F 21.2 °F 86% 30.32 in 10.0 mi West 15.0 mph 24.2 mph N/A   Overcast
7:53 AM 25.0 °F 10.6 °F 21.0 °F 85% 30.44 in 10.0 mi WSW 20.7 mph 27.6 mph N/A   Mostly Cloudy
8:21 AM 26.6 °F 12.4 °F 21.2 °F 80% 30.31 in 10.0 mi WSW 21.9 mph 31.1 mph N/A   Scattered Clouds
8:53 AM 25.0 °F 10.9 °F 21.0 °F 85% 30.44 in 10.0 mi WSW 19.6 mph 29.9 mph N/A   Clear
9:53 AM 27.0 °F 14.3 °F 21.9 °F 81% 30.43 in 10.0 mi West 17.3 mph 28.8 mph N/A   Clear
10:53 AM 28.0 °F 14.6 °F 23.0 °F 81% 30.44 in 10.0 mi WSW 20.7 mph 28.8 mph N/A   Clear
11:53 AM 30.9 °F 18.4 °F 24.1 °F 76% 30.42 in 10.0 mi West 20.7 mph 33.4 mph N/A   Clear
12:53 PM 32.0 °F 22.1 °F 25.0 °F 75% 30.42 in 10.0 mi West 13.8 mph 25.3 mph N/A   Clear
1:53 PM 33.1 °F 20.9 °F 26.1 °F 75% 30.41 in 10.0 mi WSW 21.9 mph 28.8 mph N/A   Clear
2:53 PM 34.0 °F 23.8 °F 26.1 °F 73% 30.38 in 10.0 mi West 16.1 mph 25.3 mph N/A   Clear
3:53 PM 35.1 °F 26.9 °F 27.0 °F 72% 30.39 in 10.0 mi West 11.5 mph 21.9 mph N/A   Clear
4:53 PM 35.1 °F 24.8 °F 28.9 °F 78% 30.40 in 10.0 mi West 17.3 mph 25.3 mph N/A   Clear
5:53 PM 36.0 °F 26.0 °F 28.0 °F 73% 30.36 in 10.0 mi WSW 17.3 mph 24.2 mph N/A   Clear
6:53 PM 35.1 °F 25.5 °F 28.0 °F 76% 30.39 in 10.0 mi West 15.0 mph - N/A   Clear
7:53 PM 35.1 °F 29.3 °F 27.0 °F 72% 30.41 in 10.0 mi SW 6.9 mph - N/A   Clear
8:53 PM 35.1 °F 32.2 °F 27.0 °F 72% 30.42 in 10.0 mi Variable 3.5 mph - N/A   Clear
9:53 PM 35.1 °F 26.4 °F 26.1 °F 70% 30.40 in 10.0 mi WSW 12.7 mph 17.3 mph N/A   Clear
10:53 PM 35.1 °F 26.9 °F 26.1 °F 70% 30.41 in 10.0 mi West 11.5 mph - N/A   Clear
11:53 PM 35.1 °F 24.8 °F 26.1 °F 70% 30.38 in 10.0 mi WSW 17.3 mph 26.5 mph N/A   Clear